Showing default

GALILEO 22 (2C8), 43058

Orbit data source: Space-Track

GALILEO 22 (2C8), 43058 is a payload satellite owned by GNSS Agency (ESA) that was launched on Tue, 12 Dec 2017 UTC via an ARIANE 5ES launch vehicle from the French Guiana (FRGUI). Payload-class satellites include a variety of spacecraft equipped with specific instruments for various scientific and technological missions. These include communications satellites like Starlink; space stations such as the ISS; scientific satellites like the Hubble; Earth observation satellites from companies like Planet Labs, Umbra, and HawkEye 360; GPS; miniature CubeSats for education and research; and military/defense satellites.

Loading next visibility...
Identifier
43058, 2017-079D
Orbit
Active
Country
Flag of ESAESA
Related business
Manufacturer
OHB
Mission
Operational Civil Navigation
Bus & Motor
GALILEOSAT, AOCS
Mass
715 kg wet, 700 kg dry
Launch date (UTC)
2017-12-12 (9 years ago)
Launch vehicle
ARIANE 5ES
Launch site
French Guiana (FRGUI)
Object type
Payload
Rocket body
Debris
Shape & HBR
Box + 2 Pan, 7.3 m
Radar Cross Section
9.223 m², Large (>1 m²)

Expand to show TLE details & history
Last TLE update: 3 days ago

TLE from 3 days ago
0 GALILEO 22 (2C8)
1 43058U 17079D   26170.50733131  .00000026  00000-0  00000-0 0  9991
2 43058  55.0708 221.4378 0004305 273.7481  86.2815  1.70474769 53056
Epoch: 2026-06-19T12:10Z
TLE epoch observation values (Epoch: 2026-06-19T12:10:33.425Z)
Latitude
-0.00001°
Longitude
131.07686°
Altitude
23,221.535 km
Speed
3.67 km/s
True Right ascension
14h 45m 48s
True Declination
0° 00' 00"
Sunlit
Object was in daylight at epoch
Visualization orbit readout
Latitude
Unknown
Longitude
Unknown
Altitude
Unknown
Speed
Unknown
Apparent Right ascension
Unknown
Apparent Declination
Unknown
Sunlit
N/A
Visualization observer readout
Local Sidereal Time
00:50:49
Azimuth
Unknown
Elevation
Unknown
Doppler factor
Unknown
Orbital elements
Apogee altitude
23,234.843 km
Perigee altitude
23,209.357 km
Semi-major axis
29,600.237 km
Eccentricity
0.00043
Inclination
55.0708°
RAAN
221.4378°
Arg. of periapsis
273.7481°
True anomaly
86.33073°
Mean anomaly
86.2815°
Eccentric anomaly
86.30611°
Mean motion
0.42619 °/min
Orbital period
844.7 mins
BSTAR
0
Loading maneuver chart data...
Computing Atmospheric mass density...
Loading historical data...
Loading historical data...
Loading historical data...
Loading historical data...
Loading historical data...
Loading historical data...
Loading historical data...
Other satellites on launch #79 in the year 2017 (2017-12-12 UTC)

Documentation

Showing up to 5 results
|